owner,sensor,date,latitude,longitude,vertical_datum,wind_speed,wind_to_direction,wind_speed_of_gust,qcFlag 
DISL,ioos:station:DISL:KATA:1,2016-03-01T00:00:00Z,30.2583,-88.2131,0.0,3.75,206.6,-9999.0,'1111122,1111122,1111122' 
DISL,ioos:station:DISL:KATA:1,2016-03-01T00:30:00Z,30.2583,-88.2131,0.0,3.19,204.4,-9999.0,'1111122,1111122,1111122' 
DISL,ioos:station:DISL:KATA:1,2016-03-01T01:00:00Z,30.2583,-88.2131,0.0,4.19,205.2,-9999.0,'1111122,1111122,1111122' 
DISL,ioos:station:DISL:KATA:1,2016-03-01T01:30:00Z,30.2583,-88.2131,0.0,4.41,199.6,-9999.0,'1111122,1111122,1111122' 
DISL,ioos:station:DISL:KATA:1,2016-03-01T02:00:00Z,30.2583,-88.2131,0.0,4.49,202.9,-9999.0,'1111122,1111122,1111122' 
DISL,ioos:station:DISL:KATA:1,2016-03-01T02:30:00Z,30.2583,-88.2131,0.0,4.55,197.3,-9999.0,'1111122,1111122,1111122' 
DISL,ioos:station:DISL:KATA:1,2016-03-01T03:00:00Z,30.2583,-88.2131,0.0,4.59,195.4,-9999.0,'1111122,1111122,1111122' 
DISL,ioos:station:DISL:KATA:1,2016-03-01T03:30:00Z,30.2583,-88.2131,0.0,4.86,194.2,-9999.0,'1111122,1111122,1111122' 
DISL,ioos:station:DISL:KATA:1,2016-03-01T04:00:00Z,30.2583,-88.2131,0.0,4.94,198.5,-9999.0,'1111122,1111122,1111122' 
DISL,ioos:station:DISL:KATA:1,2016-03-01T04:30:00Z,30.2583,-88.2131,0.0,4.79,202.0,-9999.0,'1111122,1111122,1111122' 
DISL,ioos:station:DISL:KATA:1,2016-03-01T05:00:00Z,30.2583,-88.2131,0.0,4.74,195.6,-9999.0,'1111122,1111122,1111122' 
DISL,ioos:station:DISL:KATA:1,2016-03-01T05:30:00Z,30.2583,-88.2131,0.0,4.9,199.8,-9999.0,'1111122,1111122,1111122' 
DISL,ioos:station:DISL:KATA:1,2016-03-01T06:00:00Z,30.2583,-88.2131,0.0,5.07,198.6,-9999.0,'1111122,1111122,1111122' 
DISL,ioos:station:DISL:KATA:1,2016-03-01T06:30:00Z,30.2583,-88.2131,0.0,5.53,197.6,-9999.0,'1111122,1111122,1111122' 
DISL,ioos:station:DISL:KATA:1,2016-03-01T07:00:00Z,30.2583,-88.2131,0.0,5.3,195.6,-9999.0,'1111122,1111122,1111122' 
DISL,ioos:station:DISL:KATA:1,2016-03-01T07:30:00Z,30.2583,-88.2131,0.0,4.24,190.1,-9999.0,'1111122,1111122,1111122' 
DISL,ioos:station:DISL:KATA:1,2016-03-01T08:00:00Z,30.2583,-88.2131,0.0,3.28,186.3,-9999.0,'1111122,1111122,1111122' 
DISL,ioos:station:DISL:KATA:1,2016-03-01T08:30:00Z,30.2583,-88.2131,0.0,3.29,188.3,-9999.0,'1111122,1111122,1111122' 
DISL,ioos:station:DISL:KATA:1,2016-03-01T09:00:00Z,30.2583,-88.2131,0.0,3.85,182.6,-9999.0,'1111122,1111122,1111122' 
DISL,ioos:station:DISL:KATA:1,2016-03-01T09:30:00Z,30.2583,-88.2131,0.0,4.73,185.2,-9999.0,'1111122,1111122,1111122' 
DISL,ioos:station:DISL:KATA:1,2016-03-01T10:00:00Z,30.2583,-88.2131,0.0,4.62,184.3,-9999.0,'1111122,1111122,1111122' 
DISL,ioos:station:DISL:KATA:1,2016-03-01T10:30:00Z,30.2583,-88.2131,0.0,4.55,180.0,-9999.0,'1111122,1111122,1111122' 
DISL,ioos:station:DISL:KATA:1,2016-03-01T11:00:00Z,30.2583,-88.2131,0.0,4.35,177.4,-9999.0,'1111122,1111122,1111122' 
DISL,ioos:station:DISL:KATA:1,2016-03-01T11:30:00Z,30.2583,-88.2131,0.0,4.19,182.2,-9999.0,'1111122,1111122,1111122' 
DISL,ioos:station:DISL:KATA:1,2016-03-01T12:00:00Z,30.2583,-88.2131,0.0,3.05,176.8,-9999.0,'1111122,1111122,1111122' 
DISL,ioos:station:DISL:KATA:1,2016-03-01T12:30:00Z,30.2583,-88.2131,0.0,3.38,187.5,-9999.0,'1111122,1111122,1111122' 
DISL,ioos:station:DISL:KATA:1,2016-03-01T13:00:00Z,30.2583,-88.2131,0.0,4.16,181.5,-9999.0,'1111122,1111122,1111122' 
DISL,ioos:station:DISL:KATA:1,2016-03-01T13:30:00Z,30.2583,-88.2131,0.0,4.58,178.8,-9999.0,'1111122,1111122,1111122' 
DISL,ioos:station:DISL:KATA:1,2016-03-01T14:00:00Z,30.2583,-88.2131,0.0,4.13,176.0,-9999.0,'1111122,1111122,1111122' 
DISL,ioos:station:DISL:KATA:1,2016-03-01T14:30:00Z,30.2583,-88.2131,0.0,3.88,183.1,-9999.0,'1111122,1111122,1111122' 
DISL,ioos:station:DISL:KATA:1,2016-03-01T15:00:00Z,30.2583,-88.2131,0.0,3.29,196.5,-9999.0,'1111122,1111122,1111122' 
DISL,ioos:station:DISL:KATA:1,2016-03-01T15:30:00Z,30.2583,-88.2131,0.0,2.38,196.7,-9999.0,'1111122,1111122,1111122' 
DISL,ioos:station:DISL:KATA:1,2016-03-01T16:00:00Z,30.2583,-88.2131,0.0,2.05,208.1,-9999.0,'1111122,1111122,1111122' 
DISL,ioos:station:DISL:KATA:1,2016-03-01T16:30:00Z,30.2583,-88.2131,0.0,2.51,218.9,-9999.0,'1111122,1111122,1111122' 
DISL,ioos:station:DISL:KATA:1,2016-03-01T17:00:00Z,30.2583,-88.2131,0.0,3.31,221.4,-9999.0,'1111122,1111122,1111122' 
DISL,ioos:station:DISL:KATA:1,2016-03-01T17:30:00Z,30.2583,-88.2131,0.0,3.61,221.9,-9999.0,'1111122,1111122,1111122' 
DISL,ioos:station:DISL:KATA:1,2016-03-01T18:00:00Z,30.2583,-88.2131,0.0,3.76,229.8,-9999.0,'1111122,1111122,1111122' 
DISL,ioos:station:DISL:KATA:1,2016-03-01T18:30:00Z,30.2583,-88.2131,0.0,4.34,241.6,-9999.0,'1111122,1111122,1111122' 
DISL,ioos:station:DISL:KATA:1,2016-03-01T19:00:00Z,30.2583,-88.2131,0.0,5.26,236.3,-9999.0,'1111122,1111122,1111122' 
DISL,ioos:station:DISL:KATA:1,2016-03-01T19:30:00Z,30.2583,-88.2131,0.0,6.12,234.3,-9999.0,'1111122,1111122,1111122' 
DISL,ioos:station:DISL:KATA:1,2016-03-01T20:00:00Z,30.2583,-88.2131,0.0,5.86,227.0,-9999.0,'1111122,1111122,1111122' 
DISL,ioos:station:DISL:KATA:1,2016-03-01T20:30:00Z,30.2583,-88.2131,0.0,5.4,222.5,-9999.0,'1111122,1111122,1111122' 
DISL,ioos:station:DISL:KATA:1,2016-03-01T21:00:00Z,30.2583,-88.2131,0.0,5.42,213.8,-9999.0,'1111122,1111122,1111122' 
DISL,ioos:station:DISL:KATA:1,2016-03-01T21:30:00Z,30.2583,-88.2131,0.0,5.79,203.7,-9999.0,'1111122,1111122,1111122' 
DISL,ioos:station:DISL:KATA:1,2016-03-01T22:00:00Z,30.2583,-88.2131,0.0,5.74,200.2,-9999.0,'1111122,1111122,1111122' 
DISL,ioos:station:DISL:KATA:1,2016-03-01T22:30:00Z,30.2583,-88.2131,0.0,5.65,200.4,-9999.0,'1111122,1111122,1111122' 
DISL,ioos:station:DISL:KATA:1,2016-03-01T23:00:00Z,30.2583,-88.2131,0.0,6.48,206.7,-9999.0,'1111122,1111122,1111122' 
DISL,ioos:station:DISL:KATA:1,2016-03-01T23:30:00Z,30.2583,-88.2131,0.0,5.99,216.5,-9999.0,'1111122,1111122,1111122' 
DISL,ioos:station:DISL:KATA:1,2016-03-02T00:00:00Z,30.2583,-88.2131,0.0,6.86,224.1,-9999.0,'1111122,1111122,1111122' 
DISL,ioos:station:DISL:KATA:1,2016-03-02T00:30:00Z,30.2583,-88.2131,0.0,7.99,219.5,-9999.0,'1111122,1111122,1111122' 
DISL,ioos:station:DISL:KATA:1,2016-03-02T01:00:00Z,30.2583,-88.2131,0.0,8.58,214.5,-9999.0,'1111122,1111122,1111122' 
DISL,ioos:station:DISL:KATA:1,2016-03-02T01:30:00Z,30.2583,-88.2131,0.0,8.5,218.2,-9999.0,'1111122,1111122,1111122' 
DISL,ioos:station:DISL:KATA:1,2016-03-02T02:00:00Z,30.2583,-88.2131,0.0,8.51,224.5,-9999.0,'1111122,1111122,1111122' 
DISL,ioos:station:DISL:KATA:1,2016-03-02T02:30:00Z,30.2583,-88.2131,0.0,8.46,229.5,-9999.0,'1111122,1111122,1111122' 
DISL,ioos:station:DISL:KATA:1,2016-03-02T03:00:00Z,30.2583,-88.2131,0.0,8.76,236.2,-9999.0,'1111122,1111122,1111122' 
DISL,ioos:station:DISL:KATA:1,2016-03-02T03:30:00Z,30.2583,-88.2131,0.0,9.31,222.4,-9999.0,'1111122,1111122,1111122' 
DISL,ioos:station:DISL:KATA:1,2016-03-02T04:00:00Z,30.2583,-88.2131,0.0,9.66,241.9,-9999.0,'1111122,1111122,1111122' 
DISL,ioos:station:DISL:KATA:1,2016-03-02T04:30:00Z,30.2583,-88.2131,0.0,10.72,255.4,-9999.0,'1111122,1111122,1111122' 
DISL,ioos:station:DISL:KATA:1,2016-03-02T05:00:00Z,30.2583,-88.2131,0.0,9.0,275.2,-9999.0,'1111122,1111122,1111122' 
DISL,ioos:station:DISL:KATA:1,2016-03-02T05:30:00Z,30.2583,-88.2131,0.0,8.21,278.0,-9999.0,'1111122,1111122,1111122' 
DISL,ioos:station:DISL:KATA:1,2016-03-02T06:00:00Z,30.2583,-88.2131,0.0,8.26,283.2,-9999.0,'1111122,1111122,1111122' 
DISL,ioos:station:DISL:KATA:1,2016-03-02T06:30:00Z,30.2583,-88.2131,0.0,7.26,286.1,-9999.0,'1111122,1111122,1111122' 
DISL,ioos:station:DISL:KATA:1,2016-03-02T07:00:00Z,30.2583,-88.2131,0.0,8.93,318.8,-9999.0,'1111122,1111122,1111122' 
DISL,ioos:station:DISL:KATA:1,2016-03-02T07:30:00Z,30.2583,-88.2131,0.0,13.15,358.9,-9999.0,'1111122,1111122,1111122' 
DISL,ioos:station:DISL:KATA:1,2016-03-02T08:00:00Z,30.2583,-88.2131,0.0,10.74,8.43,-9999.0,'1111122,1111122,1111122' 
DISL,ioos:station:DISL:KATA:1,2016-03-02T08:30:00Z,30.2583,-88.2131,0.0,10.8,12.46,-9999.0,'1111122,1111122,1111122' 
DISL,ioos:station:DISL:KATA:1,2016-03-02T09:00:00Z,30.2583,-88.2131,0.0,11.72,17.79,-9999.0,'1111122,1111122,1111122' 
DISL,ioos:station:DISL:KATA:1,2016-03-02T09:30:00Z,30.2583,-88.2131,0.0,10.53,19.03,-9999.0,'1111122,1111122,1111122' 
DISL,ioos:station:DISL:KATA:1,2016-03-02T10:00:00Z,30.2583,-88.2131,0.0,9.57,21.62,-9999.0,'1111122,1111122,1111122' 
DISL,ioos:station:DISL:KATA:1,2016-03-02T10:30:00Z,30.2583,-88.2131,0.0,9.49,21.41,-9999.0,'1111122,1111122,1111122' 
DISL,ioos:station:DISL:KATA:1,2016-03-02T11:00:00Z,30.2583,-88.2131,0.0,9.62,23.7,-9999.0,'1111122,1111122,1111122' 
DISL,ioos:station:DISL:KATA:1,2016-03-02T11:30:00Z,30.2583,-88.2131,0.0,9.14,21.17,-9999.0,'1111122,1111122,1111122' 
DISL,ioos:station:DISL:KATA:1,2016-03-02T12:00:00Z,30.2583,-88.2131,0.0,9.02,23.01,-9999.0,'1111122,1111122,1111122' 
DISL,ioos:station:DISL:KATA:1,2016-03-02T12:30:00Z,30.2583,-88.2131,0.0,7.83,22.18,-9999.0,'1111122,1111122,1111122' 
DISL,ioos:station:DISL:KATA:1,2016-03-02T13:00:00Z,30.2583,-88.2131,0.0,6.97,29.67,-9999.0,'1111122,1111122,1111122' 
DISL,ioos:station:DISL:KATA:1,2016-03-02T13:30:00Z,30.2583,-88.2131,0.0,7.23,28.5,-9999.0,'1111122,1111122,1111122' 
DISL,ioos:station:DISL:KATA:1,2016-03-02T14:00:00Z,30.2583,-88.2131,0.0,5.97,36.83,-9999.0,'1111122,1111122,1111122' 
DISL,ioos:station:DISL:KATA:1,2016-03-02T14:30:00Z,30.2583,-88.2131,0.0,5.14,32.28,-9999.0,'1111122,1111122,1111122' 
DISL,ioos:station:DISL:KATA:1,2016-03-02T15:00:00Z,30.2583,-88.2131,0.0,4.89,31.35,-9999.0,'1111122,1111122,1111122' 
DISL,ioos:station:DISL:KATA:1,2016-03-02T15:30:00Z,30.2583,-88.2131,0.0,6.11,56.66,-9999.0,'1111122,1111122,1111122' 
DISL,ioos:station:DISL:KATA:1,2016-03-02T16:00:00Z,30.2583,-88.2131,0.0,6.56,57.73,-9999.0,'1111122,1111122,1111122' 
DISL,ioos:station:DISL:KATA:1,2016-03-02T16:30:00Z,30.2583,-88.2131,0.0,6.12,67.9,-9999.0,'1111122,1111122,1111122' 
DISL,ioos:station:DISL:KATA:1,2016-03-02T17:00:00Z,30.2583,-88.2131,0.0,5.73,68.56,-9999.0,'1111122,1111122,1111122' 
DISL,ioos:station:DISL:KATA:1,2016-03-02T17:30:00Z,30.2583,-88.2131,0.0,5.62,66.07,-9999.0,'1111122,1111122,1111122' 
DISL,ioos:station:DISL:KATA:1,2016-03-02T18:00:00Z,30.2583,-88.2131,0.0,4.7,63.49,-9999.0,'1111122,1111122,1111122' 
DISL,ioos:station:DISL:KATA:1,2016-03-02T18:30:00Z,30.2583,-88.2131,0.0,4.58,90.6,-9999.0,'1111122,1111122,1111122' 
DISL,ioos:station:DISL:KATA:1,2016-03-02T19:00:00Z,30.2583,-88.2131,0.0,4.72,81.8,-9999.0,'1111122,1111122,1111122' 
DISL,ioos:station:DISL:KATA:1,2016-03-02T19:30:00Z,30.2583,-88.2131,0.0,3.74,78.87,-9999.0,'1111122,1111122,1111122' 
DISL,ioos:station:DISL:KATA:1,2016-03-02T20:00:00Z,30.2583,-88.2131,0.0,3.38,68.9,-9999.0,'1111122,1111122,1111122' 
DISL,ioos:station:DISL:KATA:1,2016-03-02T20:30:00Z,30.2583,-88.2131,0.0,3.0,67.48,-9999.0,'1111122,1111122,1111122' 
DISL,ioos:station:DISL:KATA:1,2016-03-02T21:00:00Z,30.2583,-88.2131,0.0,2.68,87.2,-9999.0,'1111122,1111122,1111122' 
DISL,ioos:station:DISL:KATA:1,2016-03-02T21:30:00Z,30.2583,-88.2131,0.0,4.54,69.55,-9999.0,'1111122,1111122,1111122' 
DISL,ioos:station:DISL:KATA:1,2016-03-02T22:00:00Z,30.2583,-88.2131,0.0,4.89,66.82,-9999.0,'1111122,1111122,1111122' 
DISL,ioos:station:DISL:KATA:1,2016-03-02T22:30:00Z,30.2583,-88.2131,0.0,4.49,52.66,-9999.0,'1111122,1111122,1111122' 
DISL,ioos:station:DISL:KATA:1,2016-03-02T23:00:00Z,30.2583,-88.2131,0.0,3.94,64.08,-9999.0,'1111122,1111122,1111122' 
DISL,ioos:station:DISL:KATA:1,2016-03-02T23:30:00Z,30.2583,-88.2131,0.0,4.48,63.28,-9999.0,'1111122,1111122,1111122' 
DISL,ioos:station:DISL:KATA:1,2016-03-03T00:00:00Z,30.2583,-88.2131,0.0,4.33,49.87,-9999.0,'1111122,1111122,1111122' 
DISL,ioos:station:DISL:KATA:1,2016-03-03T00:30:00Z,30.2583,-88.2131,0.0,4.2,44.86,-9999.0,'1111122,1111122,1111122' 
DISL,ioos:station:DISL:KATA:1,2016-03-03T01:00:00Z,30.2583,-88.2131,0.0,4.27,32.52,-9999.0,'1111122,1111122,1111122' 
DISL,ioos:station:DISL:KATA:1,2016-03-03T01:30:00Z,30.2583,-88.2131,0.0,3.77,37.17,-9999.0,'1111122,1111122,1111122' 
DISL,ioos:station:DISL:KATA:1,2016-03-03T02:00:00Z,30.2583,-88.2131,0.0,3.32,48.87,-9999.0,'1111122,1111122,1111122' 
DISL,ioos:station:DISL:KATA:1,2016-03-03T02:30:00Z,30.2583,-88.2131,0.0,3.3,61.88,-9999.0,'1111122,1111122,1111122' 
DISL,ioos:station:DISL:KATA:1,2016-03-03T03:00:00Z,30.2583,-88.2131,0.0,4.59,79.75,-9999.0,'1111122,1111122,1111122' 
DISL,ioos:station:DISL:KATA:1,2016-03-03T03:30:00Z,30.2583,-88.2131,0.0,5.53,78.21,-9999.0,'1111122,1111122,1111122' 
DISL,ioos:station:DISL:KATA:1,2016-03-03T04:00:00Z,30.2583,-88.2131,0.0,5.01,91.8,-9999.0,'1111122,1111122,1111122' 
DISL,ioos:station:DISL:KATA:1,2016-03-03T04:30:00Z,30.2583,-88.2131,0.0,4.64,101.5,-9999.0,'1111122,1111122,1111122' 
DISL,ioos:station:DISL:KATA:1,2016-03-03T05:00:00Z,30.2583,-88.2131,0.0,4.07,112.8,-9999.0,'1111122,1111122,1111122' 
DISL,ioos:station:DISL:KATA:1,2016-03-03T05:30:00Z,30.2583,-88.2131,0.0,4.73,129.5,-9999.0,'1111122,1111122,1111122' 
DISL,ioos:station:DISL:KATA:1,2016-03-03T06:00:00Z,30.2583,-88.2131,0.0,4.96,123.1,-9999.0,'1111122,1111122,1111122' 
DISL,ioos:station:DISL:KATA:1,2016-03-03T06:30:00Z,30.2583,-88.2131,0.0,3.75,106.8,-9999.0,'1111122,1111122,1111122' 
DISL,ioos:station:DISL:KATA:1,2016-03-03T07:00:00Z,30.2583,-88.2131,0.0,3.65,92.3,-9999.0,'1111122,1111122,1111122' 
DISL,ioos:station:DISL:KATA:1,2016-03-03T07:30:00Z,30.2583,-88.2131,0.0,4.61,130.0,-9999.0,'1111122,1111122,1111122' 
DISL,ioos:station:DISL:KATA:1,2016-03-03T08:00:00Z,30.2583,-88.2131,0.0,4.73,126.7,-9999.0,'1111122,1111122,1111122' 
DISL,ioos:station:DISL:KATA:1,2016-03-03T08:30:00Z,30.2583,-88.2131,0.0,5.56,126.7,-9999.0,'1111122,1111122,1111122' 
DISL,ioos:station:DISL:KATA:1,2016-03-03T09:00:00Z,30.2583,-88.2131,0.0,6.04,128.3,-9999.0,'1111122,1111122,1111122' 
DISL,ioos:station:DISL:KATA:1,2016-03-03T09:30:00Z,30.2583,-88.2131,0.0,6.31,142.1,-9999.0,'1111122,1111122,1111122' 
DISL,ioos:station:DISL:KATA:1,2016-03-03T10:00:00Z,30.2583,-88.2131,0.0,6.46,145.9,-9999.0,'1111122,1111122,1111122' 
DISL,ioos:station:DISL:KATA:1,2016-03-03T10:30:00Z,30.2583,-88.2131,0.0,6.49,150.2,-9999.0,'1111122,1111122,1111122' 
DISL,ioos:station:DISL:KATA:1,2016-03-03T11:00:00Z,30.2583,-88.2131,0.0,6.48,149.9,-9999.0,'1111122,1111122,1111122' 
DISL,ioos:station:DISL:KATA:1,2016-03-03T11:30:00Z,30.2583,-88.2131,0.0,6.47,152.1,-9999.0,'1111122,1111122,1111122' 
DISL,ioos:station:DISL:KATA:1,2016-03-03T12:00:00Z,30.2583,-88.2131,0.0,4.56,149.2,-9999.0,'1111122,1111122,1111122' 
DISL,ioos:station:DISL:KATA:1,2016-03-03T12:30:00Z,30.2583,-88.2131,0.0,4.74,147.4,-9999.0,'1111122,1111122,1111122' 
DISL,ioos:station:DISL:KATA:1,2016-03-03T13:00:00Z,30.2583,-88.2131,0.0,7.09,160.2,-9999.0,'1111122,1111122,1111122' 
DISL,ioos:station:DISL:KATA:1,2016-03-03T13:30:00Z,30.2583,-88.2131,0.0,6.26,156.4,-9999.0,'1111122,1111122,1111122' 
DISL,ioos:station:DISL:KATA:1,2016-03-03T14:00:00Z,30.2583,-88.2131,0.0,6.76,166.1,-9999.0,'1111122,1111122,1111122' 
DISL,ioos:station:DISL:KATA:1,2016-03-03T14:30:00Z,30.2583,-88.2131,0.0,6.06,168.8,-9999.0,'1111122,1111122,1111122' 
DISL,ioos:station:DISL:KATA:1,2016-03-03T15:00:00Z,30.2583,-88.2131,0.0,3.17,211.9,-9999.0,'1111122,1111122,1111122' 
DISL,ioos:station:DISL:KATA:1,2016-03-03T15:30:00Z,30.2583,-88.2131,0.0,2.38,303.0,-9999.0,'1111122,1111122,1111122' 
DISL,ioos:station:DISL:KATA:1,2016-03-03T16:00:00Z,30.2583,-88.2131,0.0,3.61,2.641,-9999.0,'1111122,1111122,1111122' 
DISL,ioos:station:DISL:KATA:1,2016-03-03T16:30:00Z,30.2583,-88.2131,0.0,2.85,107.4,-9999.0,'1111122,1111122,1111122' 
DISL,ioos:station:DISL:KATA:1,2016-03-03T17:00:00Z,30.2583,-88.2131,0.0,4.43,150.4,-9999.0,'1111122,1111122,1111122' 
DISL,ioos:station:DISL:KATA:1,2016-03-03T17:30:00Z,30.2583,-88.2131,0.0,6.16,166.8,-9999.0,'1111122,1111122,1111122' 
DISL,ioos:station:DISL:KATA:1,2016-03-03T18:00:00Z,30.2583,-88.2131,0.0,5.55,168.4,-9999.0,'1111122,1111122,1111122' 
DISL,ioos:station:DISL:KATA:1,2016-03-03T18:30:00Z,30.2583,-88.2131,0.0,6.54,163.6,-9999.0,'1111122,1111122,1111122' 
DISL,ioos:station:DISL:KATA:1,2016-03-03T19:00:00Z,30.2583,-88.2131,0.0,6.38,166.5,-9999.0,'1111122,1111122,1111122' 
DISL,ioos:station:DISL:KATA:1,2016-03-03T19:30:00Z,30.2583,-88.2131,0.0,8.22,176.7,-9999.0,'1111122,1111122,1111122' 
DISL,ioos:station:DISL:KATA:1,2016-03-03T20:00:00Z,30.2583,-88.2131,0.0,6.86,183.0,-9999.0,'1111122,1111122,1111122' 
DISL,ioos:station:DISL:KATA:1,2016-03-03T20:30:00Z,30.2583,-88.2131,0.0,7.08,193.7,-9999.0,'1111122,1111122,1111122' 
DISL,ioos:station:DISL:KATA:1,2016-03-03T21:00:00Z,30.2583,-88.2131,0.0,7.97,194.0,-9999.0,'1111122,1111122,1111122' 
DISL,ioos:station:DISL:KATA:1,2016-03-03T21:30:00Z,30.2583,-88.2131,0.0,9.34,200.0,-9999.0,'1111122,1111122,1111122' 
DISL,ioos:station:DISL:KATA:1,2016-03-03T22:00:00Z,30.2583,-88.2131,0.0,10.61,205.0,-9999.0,'1111122,1111122,1111122' 
DISL,ioos:station:DISL:KATA:1,2016-03-03T22:30:00Z,30.2583,-88.2131,0.0,10.42,215.0,-9999.0,'1111122,1111122,1111122' 
DISL,ioos:station:DISL:KATA:1,2016-03-03T23:00:00Z,30.2583,-88.2131,0.0,11.63,223.4,-9999.0,'1111122,1111122,1111122' 
DISL,ioos:station:DISL:KATA:1,2016-03-03T23:30:00Z,30.2583,-88.2131,0.0,12.58,230.7,-9999.0,'1111122,1111122,1111122' 
DISL,ioos:station:DISL:KATA:1,2016-03-04T00:00:00Z,30.2583,-88.2131,0.0,12.26,235.7,-9999.0,'1111122,1111122,1111122' 
DISL,ioos:station:DISL:KATA:1,2016-03-04T00:30:00Z,30.2583,-88.2131,0.0,12.5,244.8,-9999.0,'1111122,1111122,1111122' 
DISL,ioos:station:DISL:KATA:1,2016-03-04T01:00:00Z,30.2583,-88.2131,0.0,12.76,250.1,-9999.0,'1111122,1111122,1111122' 
DISL,ioos:station:DISL:KATA:1,2016-03-04T01:30:00Z,30.2583,-88.2131,0.0,11.78,252.3,-9999.0,'1111122,1111122,1111122' 
DISL,ioos:station:DISL:KATA:1,2016-03-04T02:00:00Z,30.2583,-88.2131,0.0,9.09,271.1,-9999.0,'1111122,1111122,1111122' 
DISL,ioos:station:DISL:KATA:1,2016-03-04T02:30:00Z,30.2583,-88.2131,0.0,5.98,287.7,-9999.0,'1111122,1111122,1111122' 
DISL,ioos:station:DISL:KATA:1,2016-03-04T03:00:00Z,30.2583,-88.2131,0.0,15.05,0.379,-9999.0,'1111122,1111122,1111122' 
DISL,ioos:station:DISL:KATA:1,2016-03-04T03:30:00Z,30.2583,-88.2131,0.0,5.52,22.88,-9999.0,'1111122,1111122,1111122' 
DISL,ioos:station:DISL:KATA:1,2016-03-04T04:00:00Z,30.2583,-88.2131,0.0,6.47,9.38,-9999.0,'1111122,1111122,1111122' 
DISL,ioos:station:DISL:KATA:1,2016-03-04T04:30:00Z,30.2583,-88.2131,0.0,8.8,11.87,-9999.0,'1111122,1111122,1111122' 
DISL,ioos:station:DISL:KATA:1,2016-03-04T05:00:00Z,30.2583,-88.2131,0.0,8.82,3.385,-9999.0,'1111122,1111122,1111122' 
DISL,ioos:station:DISL:KATA:1,2016-03-04T05:30:00Z,30.2583,-88.2131,0.0,8.51,7.724,-9999.0,'1111122,1111122,1111122' 
DISL,ioos:station:DISL:KATA:1,2016-03-04T06:00:00Z,30.2583,-88.2131,0.0,8.47,5.138,-9999.0,'1111122,1111122,1111122' 
DISL,ioos:station:DISL:KATA:1,2016-03-04T06:30:00Z,30.2583,-88.2131,0.0,7.08,4.244,-9999.0,'1111122,1111122,1111122' 
DISL,ioos:station:DISL:KATA:1,2016-03-04T07:00:00Z,30.2583,-88.2131,0.0,5.32,10.63,-9999.0,'1111122,1111122,1111122' 
DISL,ioos:station:DISL:KATA:1,2016-03-04T07:30:00Z,30.2583,-88.2131,0.0,4.84,11.79,-9999.0,'1111122,1111122,1111122' 
DISL,ioos:station:DISL:KATA:1,2016-03-04T08:00:00Z,30.2583,-88.2131,0.0,6.37,19.96,-9999.0,'1111122,1111122,1111122' 
DISL,ioos:station:DISL:KATA:1,2016-03-04T08:30:00Z,30.2583,-88.2131,0.0,5.67,20.01,-9999.0,'1111122,1111122,1111122' 
DISL,ioos:station:DISL:KATA:1,2016-03-04T09:00:00Z,30.2583,-88.2131,0.0,6.1,10.15,-9999.0,'1111122,1111122,1111122' 
DISL,ioos:station:DISL:KATA:1,2016-03-04T09:30:00Z,30.2583,-88.2131,0.0,8.96,356.2,-9999.0,'1111122,1111122,1111122' 
DISL,ioos:station:DISL:KATA:1,2016-03-04T10:00:00Z,30.2583,-88.2131,0.0,7.37,2.934,-9999.0,'1111122,1111122,1111122' 
DISL,ioos:station:DISL:KATA:1,2016-03-04T10:30:00Z,30.2583,-88.2131,0.0,7.09,354.8,-9999.0,'1111122,1111122,1111122' 
DISL,ioos:station:DISL:KATA:1,2016-03-04T11:00:00Z,30.2583,-88.2131,0.0,6.04,4.065,-9999.0,'1111122,1111122,1111122' 
DISL,ioos:station:DISL:KATA:1,2016-03-04T11:30:00Z,30.2583,-88.2131,0.0,7.43,8.81,-9999.0,'1111122,1111122,1111122' 
DISL,ioos:station:DISL:KATA:1,2016-03-04T12:00:00Z,30.2583,-88.2131,0.0,6.64,7.871,-9999.0,'1111122,1111122,1111122' 
DISL,ioos:station:DISL:KATA:1,2016-03-04T12:30:00Z,30.2583,-88.2131,0.0,6.74,10.81,-9999.0,'1111122,1111122,1111122' 
DISL,ioos:station:DISL:KATA:1,2016-03-04T13:00:00Z,30.2583,-88.2131,0.0,6.89,6.685,-9999.0,'1111122,1111122,1111122' 
DISL,ioos:station:DISL:KATA:1,2016-03-04T13:30:00Z,30.2583,-88.2131,0.0,7.15,10.96,-9999.0,'1111122,1111122,1111122' 
DISL,ioos:station:DISL:KATA:1,2016-03-04T14:00:00Z,30.2583,-88.2131,0.0,8.43,16.34,-9999.0,'1111122,1111122,1111122' 
DISL,ioos:station:DISL:KATA:1,2016-03-04T14:30:00Z,30.2583,-88.2131,0.0,8.44,22.85,-9999.0,'1111122,1111122,1111122' 
DISL,ioos:station:DISL:KATA:1,2016-03-04T15:00:00Z,30.2583,-88.2131,0.0,7.0,20.95,-9999.0,'1111122,1111122,1111122' 
DISL,ioos:station:DISL:KATA:1,2016-03-04T15:30:00Z,30.2583,-88.2131,0.0,6.88,19.95,-9999.0,'1111122,1111122,1111122' 
DISL,ioos:station:DISL:KATA:1,2016-03-04T16:00:00Z,30.2583,-88.2131,0.0,5.8,46.11,-9999.0,'1111122,1111122,1111122' 
DISL,ioos:station:DISL:KATA:1,2016-03-04T16:30:00Z,30.2583,-88.2131,0.0,5.89,57.03,-9999.0,'1111122,1111122,1111122' 
DISL,ioos:station:DISL:KATA:1,2016-03-04T17:00:00Z,30.2583,-88.2131,0.0,5.72,51.26,-9999.0,'1111122,1111122,1111122' 
DISL,ioos:station:DISL:KATA:1,2016-03-04T17:30:00Z,30.2583,-88.2131,0.0,4.71,25.0,-9999.0,'1111122,1111122,1111122' 
DISL,ioos:station:DISL:KATA:1,2016-03-04T18:00:00Z,30.2583,-88.2131,0.0,5.57,71.34,-9999.0,'1111122,1111122,1111122' 
DISL,ioos:station:DISL:KATA:1,2016-03-04T18:30:00Z,30.2583,-88.2131,0.0,5.36,67.61,-9999.0,'1111122,1111122,1111122' 
DISL,ioos:station:DISL:KATA:1,2016-03-04T19:00:00Z,30.2583,-88.2131,0.0,5.89,83.1,-9999.0,'1111122,1111122,1111122' 
DISL,ioos:station:DISL:KATA:1,2016-03-04T19:30:00Z,30.2583,-88.2131,0.0,6.73,74.92,-9999.0,'1111122,1111122,1111122' 
DISL,ioos:station:DISL:KATA:1,2016-03-04T20:00:00Z,30.2583,-88.2131,0.0,6.75,72.17,-9999.0,'1111122,1111122,1111122' 
DISL,ioos:station:DISL:KATA:1,2016-03-04T20:30:00Z,30.2583,-88.2131,0.0,6.48,70.94,-9999.0,'1111122,1111122,1111122' 
DISL,ioos:station:DISL:KATA:1,2016-03-04T21:00:00Z,30.2583,-88.2131,0.0,6.31,77.68,-9999.0,'1111122,1111122,1111122' 
DISL,ioos:station:DISL:KATA:1,2016-03-04T21:30:00Z,30.2583,-88.2131,0.0,4.7,85.2,-9999.0,'1111122,1111122,1111122' 
DISL,ioos:station:DISL:KATA:1,2016-03-04T22:00:00Z,30.2583,-88.2131,0.0,5.08,68.23,-9999.0,'1111122,1111122,1111122' 
DISL,ioos:station:DISL:KATA:1,2016-03-04T22:30:00Z,30.2583,-88.2131,0.0,4.12,60.56,-9999.0,'1111122,1111122,1111122' 
DISL,ioos:station:DISL:KATA:1,2016-03-04T23:00:00Z,30.2583,-88.2131,0.0,4.02,74.06,-9999.0,'1111122,1111122,1111122' 
DISL,ioos:station:DISL:KATA:1,2016-03-04T23:30:00Z,30.2583,-88.2131,0.0,3.6,63.88,-9999.0,'1111122,1111122,1111122' 
DISL,ioos:station:DISL:KATA:1,2016-03-05T00:00:00Z,30.2583,-88.2131,0.0,3.99,55.67,-9999.0,'1111122,1111122,1111122' 
DISL,ioos:station:DISL:KATA:1,2016-03-05T00:30:00Z,30.2583,-88.2131,0.0,3.26,251.2,-9999.0,'1111122,1111122,1111122' 
DISL,ioos:station:DISL:KATA:1,2016-03-05T01:00:00Z,30.2583,-88.2131,0.0,3.11,271.3,-9999.0,'1111122,1111122,1111122' 
DISL,ioos:station:DISL:KATA:1,2016-03-05T01:30:00Z,30.2583,-88.2131,0.0,2.79,277.6,-9999.0,'1111122,1111122,1111122' 
DISL,ioos:station:DISL:KATA:1,2016-03-05T02:00:00Z,30.2583,-88.2131,0.0,2.57,275.3,-9999.0,'1111122,1111122,1111122' 
DISL,ioos:station:DISL:KATA:1,2016-03-05T02:30:00Z,30.2583,-88.2131,0.0,3.03,292.4,-9999.0,'1111122,1111122,1111122' 
DISL,ioos:station:DISL:KATA:1,2016-03-05T03:00:00Z,30.2583,-88.2131,0.0,3.37,294.2,-9999.0,'1111122,1111122,1111122' 
DISL,ioos:station:DISL:KATA:1,2016-03-05T03:30:00Z,30.2583,-88.2131,0.0,2.8,299.8,-9999.0,'1111122,1111122,1111122' 
DISL,ioos:station:DISL:KATA:1,2016-03-05T04:00:00Z,30.2583,-88.2131,0.0,2.47,308.1,-9999.0,'1111122,1111122,1111122' 
DISL,ioos:station:DISL:KATA:1,2016-03-05T04:30:00Z,30.2583,-88.2131,0.0,1.32,316.1,-9999.0,'1111122,1111122,1111122' 